Time,TemperatureF,DewpointF,PressureIn,WindDirection,WindDirectionDegrees,WindSpeedMPH,WindSpeedGustMPH,Humidity,HourlyPrecipIn,Conditions,Clouds,dailyrainin,SoftwareType,DateUTC
2013-11-09 00:01:00,28.3,27.4,30.28,NW,304,0.0,0.0,96,0.00,,OVC OVC///CB,0.00,WUHU216DAVISVP2,2013-11-09 05:01:00,
2013-11-09 00:02:00,28.3,27.4,30.29,NW,305,0.0,0.0,96,0.00,,OVC OVC///CB,0.00,WUHU216DAVISVP2,2013-11-09 05:02:00,
2013-11-09 00:07:00,28.3,27.4,30.28,NW,305,0.0,0.0,96,0.00,,OVC OVC///CB,0.00,WUHU216DAVISVP2,2013-11-09 05:07:00,
2013-11-09 00:12:00,28.4,27.2,30.28,NW,304,0.0,0.0,95,0.00,,OVC OVC///CB,0.00,WUHU216DAVISVP2,2013-11-09 05:12:00,
2013-11-09 00:17:00,28.3,27.1,30.29,NW,305,0.0,0.0,95,0.00,,OVC OVC///CB,0.00,WUHU216DAVISVP2,2013-11-09 05:17:00,
2013-11-09 00:22:00,28.3,27.1,30.29,NW,305,0.0,0.0,95,0.00,,OVC OVC///CB,0.00,WUHU216DAVISVP2,2013-11-09 05:22:00,
2013-11-09 00:27:00,28.3,27.4,30.28,NW,304,0.0,0.0,96,0.00,,OVC OVC///CB,0.00,WUHU216DAVISVP2,2013-11-09 05:27:00,
2013-11-09 00:32:00,28.4,27.5,30.29,NW,304,0.0,0.0,96,0.00,,OVC OVC///CB,0.00,WUHU216DAVISVP2,2013-11-09 05:32:00,
2013-11-09 00:37:00,28.8,27.9,30.29,NW,304,0.0,0.0,96,0.00,,OVC OVC///CB,0.00,WUHU216DAVISVP2,2013-11-09 05:37:00,
2013-11-09 00:42:00,29.2,28.3,30.29,NW,304,0.0,0.0,96,0.00,,OVC OVC///CB,0.00,WUHU216DAVISVP2,2013-11-09 05:42:00,
2013-11-09 00:47:00,29.3,28.1,30.29,NW,305,0.0,0.0,95,0.00,,OVC OVC///CB,0.00,WUHU216DAVISVP2,2013-11-09 05:47:00,
2013-11-09 00:52:00,29.4,28.2,30.28,NW,304,0.0,0.0,95,0.00,,OVC OVC///CB,0.00,WUHU216DAVISVP2,2013-11-09 05:52:00,
2013-11-09 00:57:00,29.5,28.3,30.28,NW,304,0.0,0.0,95,0.00,,OVC OVC///CB,0.00,WUHU216DAVISVP2,2013-11-09 05:57:00,
2013-11-09 01:02:00,29.6,28.1,30.28,NW,304,0.0,0.0,94,0.00,,OVC OVC///CB,0.00,WUHU216DAVISVP2,2013-11-09 06:02:00,
2013-11-09 01:07:00,29.4,27.9,30.28,NW,304,0.0,0.0,94,0.00,,OVC OVC///CB,0.00,WUHU216DAVISVP2,2013-11-09 06:07:00,
2013-11-09 01:12:00,29.4,27.9,30.27,NW,304,0.0,0.0,94,0.00,,OVC OVC///CB,0.00,WUHU216DAVISVP2,2013-11-09 06:12:00,
2013-11-09 01:17:00,29.1,27.6,30.28,NW,304,0.0,0.0,94,0.00,,OVC OVC///CB,0.00,WUHU216DAVISVP2,2013-11-09 06:17:00,
2013-11-09 01:22:00,29.3,28.1,30.28,NW,304,0.0,0.0,95,0.00,,OVC OVC///CB,0.00,WUHU216DAVISVP2,2013-11-09 06:22:00,
2013-11-09 01:27:00,29.6,28.4,30.27,NW,305,0.0,0.0,95,0.00,,OVC OVC///CB,0.00,WUHU216DAVISVP2,2013-11-09 06:27:00,
2013-11-09 01:32:00,29.6,28.1,30.27,NW,304,0.0,0.0,94,0.00,,OVC OVC///CB,0.00,WUHU216DAVISVP2,2013-11-09 06:32:00,
2013-11-09 01:37:00,29.6,28.1,30.27,NW,304,0.0,0.0,94,0.00,,OVC OVC///CB,0.00,WUHU216DAVISVP2,2013-11-09 06:37:00,
2013-11-09 01:42:00,29.6,28.1,30.27,NW,304,0.0,0.0,94,0.00,,OVC OVC///CB,0.00,WUHU216DAVISVP2,2013-11-09 06:42:00,
2013-11-09 01:47:00,29.6,28.1,30.27,NW,304,0.0,0.0,94,0.00,,OVC OVC///CB,0.00,WUHU216DAVISVP2,2013-11-09 06:47:00,
2013-11-09 01:52:00,29.8,28.3,30.27,NW,304,0.0,0.0,94,0.00,,OVC OVC///CB,0.00,WUHU216DAVISVP2,2013-11-09 06:52:00,
2013-11-09 01:57:00,29.8,28.1,30.27,NW,304,0.0,0.0,93,0.00,,OVC OVC///CB,0.00,WUHU216DAVISVP2,2013-11-09 06:57:00,
2013-11-09 02:02:00,29.9,28.2,30.27,NW,304,0.0,0.0,93,0.00,,OVC OVC///CB,0.00,WUHU216DAVISVP2,2013-11-09 07:02:00,
2013-11-09 02:07:00,29.9,28.2,30.27,NW,304,0.0,0.0,93,0.00,,OVC OVC///CB,0.00,WUHU216DAVISVP2,2013-11-09 07:07:00,
2013-11-09 02:12:00,29.8,28.1,30.28,SSW,200,1.0,1.0,93,0.00,,OVC OVC///CB,0.00,WUHU216DAVISVP2,2013-11-09 07:12:00,
2013-11-09 02:17:00,30.4,28.7,30.28,SSW,195,0.0,3.0,93,0.00,,OVC OVC///CB,0.00,WUHU216DAVISVP2,2013-11-09 07:17:00,
2013-11-09 02:22:00,30.7,28.4,30.27,SSE,162,0.0,3.0,91,0.00,,OVC OVC///CB,0.00,WUHU216DAVISVP2,2013-11-09 07:22:00,
2013-11-09 02:27:00,31.0,28.5,30.27,SSW,192,0.0,3.0,90,0.00,,OVC OVC///CB,0.00,WUHU216DAVISVP2,2013-11-09 07:27:00,
2013-11-09 02:32:00,31.2,28.4,30.27,South,177,2.0,3.0,89,0.00,,OVC OVC///CB,0.00,WUHU216DAVISVP2,2013-11-09 07:32:00,
2013-11-09 02:37:00,31.3,28.5,30.27,South,183,0.0,3.0,89,0.00,,OVC OVC///CB,0.00,WUHU216DAVISVP2,2013-11-09 07:37:00,
2013-11-09 02:42:00,31.4,28.6,30.27,SSE,162,0.0,3.0,89,0.00,,OVC OVC///CB,0.00,WUHU216DAVISVP2,2013-11-09 07:42:00,
2013-11-09 02:47:00,31.4,28.6,30.27,SSE,162,1.0,3.0,89,0.00,,OVC OVC///CB,0.00,WUHU216DAVISVP2,2013-11-09 07:47:00,
2013-11-09 02:52:00,31.6,28.5,30.27,SSE,158,1.0,3.0,88,0.00,,OVC OVC///CB,0.00,WUHU216DAVISVP2,2013-11-09 07:52:00,
2013-11-09 02:57:00,31.6,28.5,30.27,SSE,163,0.0,3.0,88,0.00,,OVC OVC///CB,0.00,WUHU216DAVISVP2,2013-11-09 07:57:00,
2013-11-09 03:02:00,31.6,28.8,30.25,SSW,203,0.0,3.0,89,0.00,,OVC OVC///CB,0.00,WUHU216DAVISVP2,2013-11-09 08:02:00,
2013-11-09 03:07:00,31.5,28.7,30.26,SSW,211,1.0,3.0,89,0.00,,OVC OVC///CB,0.00,WUHU216DAVISVP2,2013-11-09 08:07:00,
2013-11-09 03:12:00,31.6,28.8,30.27,SW,232,1.0,3.0,89,0.00,,OVC OVC///CB,0.00,WUHU216DAVISVP2,2013-11-09 08:12:00,
2013-11-09 03:17:00,31.7,28.6,30.26,South,186,1.0,4.0,88,0.00,,OVC OVC///CB,0.00,WUHU216DAVISVP2,2013-11-09 08:17:00,
2013-11-09 03:22:00,31.6,28.8,30.27,SSW,193,2.0,4.0,89,0.00,,OVC OVC///CB,0.00,WUHU216DAVISVP2,2013-11-09 08:22:00,
2013-11-09 03:27:00,31.6,28.8,30.27,SSW,205,1.0,4.0,89,0.00,,OVC OVC///CB,0.00,WUHU216DAVISVP2,2013-11-09 08:27:00,
2013-11-09 03:32:00,31.6,28.8,30.26,South,191,0.0,4.0,89,0.00,,OVC OVC///CB,0.00,WUHU216DAVISVP2,2013-11-09 08:32:00,
2013-11-09 03:37:00,31.5,28.7,30.26,SSW,194,0.0,3.0,89,0.00,,OVC OVC///CB,0.00,WUHU216DAVISVP2,2013-11-09 08:37:00,
2013-11-09 03:42:00,31.5,29.0,30.25,South,184,0.0,2.0,90,0.00,,OVC OVC///CB,0.00,WUHU216DAVISVP2,2013-11-09 08:42:00,
2013-11-09 03:47:00,31.4,28.9,30.26,SSW,203,3.0,3.0,90,0.00,,OVC OVC///CB,0.00,WUHU216DAVISVP2,2013-11-09 08:47:00,
2013-11-09 03:52:00,31.6,28.8,30.26,South,187,0.0,5.0,89,0.00,,OVC OVC///CB,0.00,WUHU216DAVISVP2,2013-11-09 08:52:00,
2013-11-09 03:57:00,31.7,28.9,30.26,South,189,2.0,5.0,89,0.00,,OVC OVC///CB,0.00,WUHU216DAVISVP2,2013-11-09 08:57:00,
2013-11-09 04:02:00,31.7,28.9,30.25,South,173,0.0,5.0,89,0.00,,OVC OVC///CB,0.00,WUHU216DAVISVP2,2013-11-09 09:02:00,
2013-11-09 04:07:00,31.6,28.8,30.25,South,173,0.0,5.0,89,0.00,,OVC OVC///CB,0.00,WUHU216DAVISVP2,2013-11-09 09:07:00,
2013-11-09 04:12:00,31.6,28.8,30.25,SSW,197,0.0,3.0,89,0.00,,OVC OVC///CB,0.00,WUHU216DAVISVP2,2013-11-09 09:12:00,
2013-11-09 04:17:00,31.6,29.1,30.24,SW,215,0.0,2.0,90,0.00,,OVC OVC///CB,0.00,WUHU216DAVISVP2,2013-11-09 09:17:00,
2013-11-09 04:22:00,31.6,29.1,30.24,SW,229,1.0,2.0,90,0.00,,OVC OVC///CB,0.00,WUHU216DAVISVP2,2013-11-09 09:22:00,
2013-11-09 04:27:00,31.8,29.0,30.25,SW,220,0.0,3.0,89,0.00,,OVC OVC///CB,0.00,WUHU216DAVISVP2,2013-11-09 09:27:00,
2013-11-09 04:32:00,31.9,29.1,30.25,SSE,165,0.0,3.0,89,0.00,,OVC OVC///CB,0.00,WUHU216DAVISVP2,2013-11-09 09:32:00,
2013-11-09 04:37:00,31.8,29.0,30.24,SSE,167,0.0,3.0,89,0.00,,OVC OVC///CB,0.00,WUHU216DAVISVP2,2013-11-09 09:37:00,
2013-11-09 04:42:00,31.8,29.0,30.25,South,176,0.0,3.0,89,0.00,,OVC OVC///CB,0.00,WUHU216DAVISVP2,2013-11-09 09:42:00,
2013-11-09 04:47:00,31.9,29.1,30.25,South,173,0.0,5.0,89,0.00,,OVC OVC///CB,0.00,WUHU216DAVISVP2,2013-11-09 09:47:00,
2013-11-09 04:52:00,32.1,29.3,30.25,SSW,203,1.0,5.0,89,0.00,,OVC OVC///CB,0.00,WUHU216DAVISVP2,2013-11-09 09:52:00,
2013-11-09 04:57:00,32.2,29.1,30.25,South,169,0.0,5.0,88,0.00,,OVC OVC///CB,0.00,WUHU216DAVISVP2,2013-11-09 09:57:00,
2013-11-09 05:02:00,32.2,29.4,30.24,SSW,198,0.0,4.0,89,0.00,,OVC OVC///CB,0.00,WUHU216DAVISVP2,2013-11-09 10:02:00,
2013-11-09 05:07:00,32.3,29.5,30.24,South,170,1.0,4.0,89,0.00,,OVC OVC///CB,0.00,WUHU216DAVISVP2,2013-11-09 10:07:00,
2013-11-09 05:12:00,32.3,29.5,30.23,SSE,155,1.0,4.0,89,0.00,,OVC OVC///CB,0.00,WUHU216DAVISVP2,2013-11-09 10:12:00,
2013-11-09 05:17:00,32.5,29.4,30.23,SW,221,2.0,7.0,88,0.00,,OVC OVC///CB,0.00,WUHU216DAVISVP2,2013-11-09 10:17:00,
2013-11-09 05:22:00,32.6,29.5,30.23,SSW,201,2.0,7.0,88,0.00,,OVC OVC///CB,0.00,WUHU216DAVISVP2,2013-11-09 10:22:00,
2013-11-09 05:27:00,32.7,29.6,30.23,SSW,193,2.0,7.0,88,0.00,,OVC OVC///CB,0.00,WUHU216DAVISVP2,2013-11-09 10:27:00,
2013-11-09 05:32:00,32.9,29.5,30.23,SSW,205,1.0,6.0,87,0.00,,OVC OVC///CB,0.00,WUHU216DAVISVP2,2013-11-09 10:32:00,
2013-11-09 05:37:00,32.9,29.5,30.23,SSW,197,1.0,6.0,87,0.00,,OVC OVC///CB,0.00,WUHU216DAVISVP2,2013-11-09 10:37:00,
2013-11-09 05:42:00,32.9,29.5,30.24,SSE,160,3.0,6.0,87,0.00,,OVC OVC///CB,0.00,WUHU216DAVISVP2,2013-11-09 10:42:00,
2013-11-09 05:47:00,32.9,29.5,30.23,South,190,0.0,6.0,87,0.00,,OVC OVC///CB,0.00,WUHU216DAVISVP2,2013-11-09 10:47:00,
2013-11-09 05:52:00,32.9,29.5,30.23,SW,219,3.0,6.0,87,0.00,,OVC OVC///CB,0.00,WUHU216DAVISVP2,2013-11-09 10:52:00,
2013-11-09 05:57:00,33.0,29.6,30.22,SSW,194,1.0,6.0,87,0.00,,OVC OVC///CB,0.00,WUHU216DAVISVP2,2013-11-09 10:57:00,
2013-11-09 06:02:00,33.1,29.7,30.22,SSW,197,3.0,6.0,87,0.00,,OVC OVC///CB,0.00,WUHU216DAVISVP2,2013-11-09 11:02:00,
2013-11-09 06:07:00,33.1,29.7,30.22,SE,142,2.0,7.0,87,0.00,,OVC OVC///CB,0.00,WUHU216DAVISVP2,2013-11-09 11:07:00,
2013-11-09 06:12:00,33.2,29.8,30.22,SE,145,2.0,7.0,87,0.00,,OVC OVC///CB,0.00,WUHU216DAVISVP2,2013-11-09 11:12:00,
2013-11-09 06:17:00,33.3,29.9,30.22,South,188,1.0,7.0,87,0.00,,OVC OVC///CB,0.00,WUHU216DAVISVP2,2013-11-09 11:17:00,
2013-11-09 06:22:00,33.4,30.0,30.22,SSE,149,1.0,7.0,87,0.00,,OVC OVC///CB,0.00,WUHU216DAVISVP2,2013-11-09 11:22:00,
2013-11-09 06:27:00,33.6,29.9,30.21,South,187,0.0,7.0,86,0.00,,OVC OVC///CB,0.00,WUHU216DAVISVP2,2013-11-09 11:27:00,
2013-11-09 06:32:00,33.7,30.0,30.22,SSW,205,2.0,6.0,86,0.00,,OVC OVC///CB,0.00,WUHU216DAVISVP2,2013-11-09 11:32:00,
2013-11-09 06:37:00,33.8,30.1,30.21,SSE,162,0.0,6.0,86,0.00,,OVC OVC///CB,0.00,WUHU216DAVISVP2,2013-11-09 11:37:00,
2013-11-09 06:42:00,33.9,30.0,30.21,SSE,163,2.0,10.0,85,0.00,,OVC OVC///CB,0.00,WUHU216DAVISVP2,2013-11-09 11:42:00,
2013-11-09 06:47:00,33.9,30.0,30.21,SSW,207,4.0,10.0,85,0.00,,OVC OVC///CB,0.00,WUHU216DAVISVP2,2013-11-09 11:47:00,
2013-11-09 06:52:00,34.0,30.1,30.21,SSE,152,3.0,9.0,85,0.00,,OVC OVC///CB,0.00,WUHU216DAVISVP2,2013-11-09 11:52:00,
2013-11-09 06:57:00,34.0,30.1,30.21,SSW,208,1.0,9.0,85,0.00,,OVC OVC///CB,0.00,WUHU216DAVISVP2,2013-11-09 11:57:00,
2013-11-09 07:02:00,33.9,30.0,30.21,South,184,2.0,8.0,85,0.00,,OVC OVC///CB,0.00,WUHU216DAVISVP2,2013-11-09 12:02:00,
2013-11-09 07:07:00,33.9,30.0,30.20,SSE,160,1.0,10.0,85,0.00,,OVC OVC///CB,0.00,WUHU216DAVISVP2,2013-11-09 12:07:00,
2013-11-09 07:12:00,34.0,30.1,30.21,SSW,208,0.0,10.0,85,0.00,,OVC OVC///CB,0.00,WUHU216DAVISVP2,2013-11-09 12:12:00,
2013-11-09 07:17:00,34.0,30.1,30.21,SSW,209,2.0,10.0,85,0.00,,OVC OVC///CB,0.00,WUHU216DAVISVP2,2013-11-09 12:17:00,
2013-11-09 07:22:00,34.0,30.1,30.21,SSE,153,2.0,10.0,85,0.00,,OVC OVC///CB,0.00,WUHU216DAVISVP2,2013-11-09 12:22:00,
2013-11-09 07:27:00,34.0,30.1,30.20,SSE,166,1.0,8.0,85,0.00,,OVC OVC///CB,0.00,WUHU216DAVISVP2,2013-11-09 12:27:00,
2013-11-09 07:32:00,34.1,30.2,30.21,South,191,2.0,8.0,85,0.00,,OVC OVC///CB,0.00,WUHU216DAVISVP2,2013-11-09 12:32:00,
2013-11-09 07:37:00,34.1,30.2,30.21,SSW,201,2.0,6.0,85,0.00,,OVC OVC///CB,0.00,WUHU216DAVISVP2,2013-11-09 12:37:00,
2013-11-09 07:42:00,34.1,30.2,30.21,South,191,3.0,6.0,85,0.00,,OVC OVC///CB,0.00,WUHU216DAVISVP2,2013-11-09 12:42:00,
2013-11-09 07:47:00,34.3,30.3,30.21,SSW,194,0.0,6.0,85,0.00,,OVC OVC///CB,0.00,WUHU216DAVISVP2,2013-11-09 12:47:00,
2013-11-09 07:52:00,34.4,30.4,30.21,SSE,162,1.0,6.0,85,0.00,,OVC OVC///CB,0.00,WUHU216DAVISVP2,2013-11-09 12:52:00,
2013-11-09 07:57:00,34.5,30.3,30.21,SSW,199,5.0,7.0,84,0.00,,OVC OVC///CB,0.00,WUHU216DAVISVP2,2013-11-09 12:57:00,
2013-11-09 08:02:00,34.8,30.6,30.21,SW,225,2.0,10.0,84,0.00,,OVC OVC///CB,0.00,WUHU216DAVISVP2,2013-11-09 13:02:00,
2013-11-09 08:07:00,34.9,30.4,30.20,SSW,194,3.0,10.0,83,0.00,,OVC OVC///CB,0.00,WUHU216DAVISVP2,2013-11-09 13:07:00,
2013-11-09 08:12:00,35.1,30.6,30.20,SSW,210,3.0,10.0,83,0.00,,OVC OVC///CB,0.00,WUHU216DAVISVP2,2013-11-09 13:12:00,
2013-11-09 08:17:00,35.3,30.8,30.20,SSW,205,1.0,9.0,83,0.00,,OVC OVC///CB,0.00,WUHU216DAVISVP2,2013-11-09 13:17:00,
2013-11-09 08:22:00,35.5,30.7,30.19,SSW,204,5.0,10.0,82,0.00,,OVC OVC///CB,0.00,WUHU216DAVISVP2,2013-11-09 13:22:00,
2013-11-09 08:27:00,35.7,30.9,30.19,SSW,200,2.0,10.0,82,0.00,,OVC OVC///CB,0.00,WUHU216DAVISVP2,2013-11-09 13:27:00,
2013-11-09 08:32:00,36.0,30.9,30.19,SSE,168,4.0,10.0,81,0.00,,OVC OVC///CB,0.00,WUHU216DAVISVP2,2013-11-09 13:32:00,
2013-11-09 08:37:00,36.2,30.8,30.19,South,183,4.0,10.0,80,0.00,,OVC OVC///CB,0.00,WUHU216DAVISVP2,2013-11-09 13:37:00,
2013-11-09 08:42:00,36.5,31.0,30.18,South,174,4.0,14.0,80,0.00,,OVC OVC///CB,0.00,WUHU216DAVISVP2,2013-11-09 13:42:00,
2013-11-09 08:47:00,36.7,31.2,30.18,SSW,197,4.0,14.0,80,0.00,,OVC OVC///CB,0.00,WUHU216DAVISVP2,2013-11-09 13:47:00,
2013-11-09 08:52:00,36.9,31.1,30.18,SSW,207,4.0,14.0,79,0.00,,OVC OVC///CB,0.00,WUHU216DAVISVP2,2013-11-09 13:52:00,
2013-11-09 08:57:00,37.3,31.5,30.19,South,186,2.0,10.0,79,0.00,,OVC OVC///CB,0.00,WUHU216DAVISVP2,2013-11-09 13:57:00,
2013-11-09 09:02:00,37.6,31.5,30.18,SW,218,2.0,10.0,78,0.00,,OVC OVC///CB,0.00,WUHU216DAVISVP2,2013-11-09 14:02:00,
2013-11-09 09:07:00,37.7,31.6,30.17,SSW,195,2.0,10.0,78,0.00,,OVC OVC///CB,0.00,WUHU216DAVISVP2,2013-11-09 14:07:00,
2013-11-09 09:12:00,37.9,31.5,30.17,SSW,203,4.0,11.0,77,0.00,,OVC OVC///CB,0.00,WUHU216DAVISVP2,2013-11-09 14:12:00,
2013-11-09 09:17:00,38.0,31.6,30.17,SSW,198,2.0,11.0,77,0.00,,OVC OVC///CB,0.00,WUHU216DAVISVP2,2013-11-09 14:17:00,
2013-11-09 09:22:00,38.2,31.5,30.17,SSW,197,2.0,11.0,76,0.00,,OVC OVC///CB,0.00,WUHU216DAVISVP2,2013-11-09 14:22:00,
2013-11-09 09:27:00,38.5,32.1,30.17,SSW,208,2.0,9.0,77,0.00,,OVC OVC///CB,0.00,WUHU216DAVISVP2,2013-11-09 14:27:00,
2013-11-09 09:32:00,38.8,32.1,30.16,South,181,4.0,9.0,76,0.00,,OVC OVC///CB,0.00,WUHU216DAVISVP2,2013-11-09 14:32:00,
2013-11-09 09:37:00,39.1,31.7,30.16,South,186,3.0,14.0,74,0.00,,OVC OVC///CB,0.00,WUHU216DAVISVP2,2013-11-09 14:37:00,
2013-11-09 09:42:00,39.5,31.8,30.15,SSW,205,4.0,14.0,73,0.00,,OVC OVC///CB,0.00,WUHU216DAVISVP2,2013-11-09 14:42:00,
2013-11-09 09:47:00,39.8,32.4,30.15,SW,214,6.0,14.0,74,0.00,,OVC OVC///CB,0.00,WUHU216DAVISVP2,2013-11-09 14:47:00,
2013-11-09 09:52:00,40.0,32.2,30.14,South,186,4.0,14.0,73,0.00,,OVC OVC///CB,0.00,WUHU216DAVISVP2,2013-11-09 14:52:00,
2013-11-09 09:57:00,40.3,32.2,30.15,South,191,4.0,13.0,72,0.00,,OVC OVC///CB,0.00,WUHU216DAVISVP2,2013-11-09 14:57:00,
2013-11-09 10:02:00,40.5,32.4,30.14,South,172,2.0,13.0,72,0.00,,OVC OVC///CB,0.00,WUHU216DAVISVP2,2013-11-09 15:02:00,
2013-11-09 10:07:00,40.8,32.7,30.13,SW,236,2.0,13.0,72,0.00,,OVC OVC///CB,0.00,WUHU216DAVISVP2,2013-11-09 15:07:00,
2013-11-09 10:12:00,41.2,33.1,30.14,SSW,211,1.0,13.0,72,0.00,,OVC OVC///CB,0.00,WUHU216DAVISVP2,2013-11-09 15:12:00,
2013-11-09 10:17:00,41.6,33.1,30.13,SSW,203,2.0,13.0,71,0.00,,OVC OVC///CB,0.00,WUHU216DAVISVP2,2013-11-09 15:17:00,
2013-11-09 10:22:00,41.9,33.4,30.14,WSW,242,2.0,13.0,71,0.00,,OVC OVC///CB,0.00,WUHU216DAVISVP2,2013-11-09 15:22:00,
2013-11-09 10:27:00,42.3,33.4,30.13,SW,222,1.0,9.0,70,0.00,,OVC OVC///CB,0.00,WUHU216DAVISVP2,2013-11-09 15:27:00,
2013-11-09 10:32:00,42.7,32.7,30.12,South,187,11.0,12.0,67,0.00,,OVC OVC///CB,0.00,WUHU216DAVISVP2,2013-11-09 15:32:00,
2013-11-09 10:37:00,43.1,32.8,30.12,SSW,203,4.0,12.0,66,0.00,,OVC OVC///CB,0.00,WUHU216DAVISVP2,2013-11-09 15:37:00,
2013-11-09 10:42:00,43.5,32.8,30.11,South,191,9.0,12.0,65,0.00,,OVC OVC///CB,0.00,WUHU216DAVISVP2,2013-11-09 15:42:00,
2013-11-09 10:47:00,44.4,33.6,30.11,SSW,198,7.0,12.0,65,0.00,,OVC OVC///CB,0.00,WUHU216DAVISVP2,2013-11-09 15:47:00,
2013-11-09 10:52:00,45.5,33.5,30.11,SW,223,4.0,14.0,62,0.00,,OVC OVC///CB,0.00,WUHU216DAVISVP2,2013-11-09 15:52:00,
2013-11-09 10:57:00,46.4,33.5,30.10,SW,218,6.0,14.0,60,0.00,,OVC OVC///CB,0.00,WUHU216DAVISVP2,2013-11-09 15:57:00,
2013-11-09 11:02:00,46.7,33.4,30.10,SSW,200,5.0,14.0,59,0.00,,OVC OVC///CB,0.00,WUHU216DAVISVP2,2013-11-09 16:02:00,
2013-11-09 11:07:00,47.0,33.7,30.10,SSE,167,8.0,15.0,59,0.00,,OVC OVC///CB,0.00,WUHU216DAVISVP2,2013-11-09 16:07:00,
2013-11-09 11:12:00,47.2,33.0,30.09,SW,228,14.0,15.0,57,0.00,,OVC OVC///CB,0.00,WUHU216DAVISVP2,2013-11-09 16:12:00,
2013-11-09 11:17:00,47.1,33.3,30.09,SSW,203,3.0,15.0,58,0.00,,OVC OVC///CB,0.00,WUHU216DAVISVP2,2013-11-09 16:17:00,
2013-11-09 11:22:00,47.5,33.7,30.08,SSW,212,10.0,15.0,58,0.00,,OVC OVC///CB,0.00,WUHU216DAVISVP2,2013-11-09 16:22:00,
2013-11-09 11:27:00,48.1,33.8,30.08,WSW,240,5.0,15.0,57,0.00,,OVC OVC///CB,0.00,WUHU216DAVISVP2,2013-11-09 16:27:00,
2013-11-09 11:32:00,48.7,34.8,30.07,SW,224,4.0,15.0,58,0.00,,OVC OVC///CB,0.00,WUHU216DAVISVP2,2013-11-09 16:32:00,
2013-11-09 11:37:00,49.1,34.3,30.07,WSW,238,5.0,18.0,56,0.00,,OVC OVC///CB,0.00,WUHU216DAVISVP2,2013-11-09 16:37:00,
2013-11-09 11:41:00,49.1,33.4,30.07,South,186,7.0,18.0,54,0.00,,OVC OVC///CB,0.00,WUHU216DAVISVP2,2013-11-09 16:41:00,
2013-11-09 11:46:00,49.1,34.3,30.07,South,188,5.0,18.0,56,0.00,,OVC OVC///CB,0.00,WUHU216DAVISVP2,2013-11-09 16:46:00,
2013-11-09 11:51:00,49.5,33.8,30.06,SW,214,11.0,18.0,54,0.00,,OVC OVC///CB,0.00,WUHU216DAVISVP2,2013-11-09 16:51:00,
2013-11-09 11:56:00,50.1,33.8,30.06,South,172,5.0,18.0,53,0.00,,OVC OVC///CB,0.00,WUHU216DAVISVP2,2013-11-09 16:56:00,
2013-11-09 12:01:00,50.3,33.5,30.06,WSW,245,7.0,19.0,52,0.00,,OVC OVC///CB,0.00,WUHU216DAVISVP2,2013-11-09 17:01:00,
2013-11-09 12:06:00,50.6,33.8,30.05,WSW,252,8.0,19.0,52,0.00,,OVC OVC///CB,0.00,WUHU216DAVISVP2,2013-11-09 17:06:00,
2013-11-09 12:11:00,50.8,34.0,30.05,SW,224,8.0,21.0,52,0.00,,OVC OVC///CB,0.00,WUHU216DAVISVP2,2013-11-09 17:11:00,
2013-11-09 12:16:00,51.2,33.9,30.04,South,188,10.0,21.0,51,0.00,,OVC OVC///CB,0.00,WUHU216DAVISVP2,2013-11-09 17:16:00,
2013-11-09 12:21:00,51.5,34.2,30.03,South,177,11.0,20.0,51,0.00,,OVC OVC///CB,0.00,WUHU216DAVISVP2,2013-11-09 17:21:00,
2013-11-09 12:26:00,51.6,33.7,30.02,WSW,240,11.0,20.0,50,0.00,,OVC OVC///CB,0.00,WUHU216DAVISVP2,2013-11-09 17:26:00,
2013-11-09 12:31:00,51.8,34.4,30.02,WSW,245,9.0,22.0,51,0.00,,OVC OVC///CB,0.00,WUHU216DAVISVP2,2013-11-09 17:31:00,
2013-11-09 12:36:00,51.8,33.9,30.02,SW,225,5.0,22.0,50,0.00,,OVC OVC///CB,0.00,WUHU216DAVISVP2,2013-11-09 17:36:00,
2013-11-09 12:41:00,51.6,33.7,30.01,SSW,205,21.0,24.0,50,0.00,,OVC OVC///CB,0.00,WUHU216DAVISVP2,2013-11-09 17:41:00,
2013-11-09 12:46:00,52.2,34.3,30.00,SW,235,8.0,24.0,50,0.00,,OVC OVC///CB,0.00,WUHU216DAVISVP2,2013-11-09 17:46:00,
2013-11-09 12:51:00,52.7,34.8,30.00,WSW,248,3.0,24.0,50,0.00,,OVC OVC///CB,0.00,WUHU216DAVISVP2,2013-11-09 17:51:00,
2013-11-09 12:56:00,53.4,34.4,29.99,South,190,9.0,24.0,48,0.00,,OVC OVC///CB,0.00,WUHU216DAVISVP2,2013-11-09 17:56:00,
2013-11-09 13:01:00,53.6,34.5,29.98,NW,305,3.0,21.0,48,0.00,,OVC OVC///CB,0.00,WUHU216DAVISVP2,2013-11-09 18:01:00,
2013-11-09 13:06:00,53.5,33.9,29.99,SW,226,17.0,21.0,47,0.00,,OVC OVC///CB,0.00,WUHU216DAVISVP2,2013-11-09 18:06:00,
2013-11-09 13:11:00,53.7,34.6,29.98,SSW,210,7.0,21.0,48,0.00,,OVC OVC///CB,0.00,WUHU216DAVISVP2,2013-11-09 18:11:00,
2013-11-09 13:16:00,54.0,34.9,29.99,SW,233,5.0,21.0,48,0.00,,OVC OVC///CB,0.00,WUHU216DAVISVP2,2013-11-09 18:16:00,
2013-11-09 13:21:00,54.3,34.6,29.98,WSW,249,5.0,20.0,47,0.00,,OVC OVC///CB,0.00,WUHU216DAVISVP2,2013-11-09 18:21:00,
2013-11-09 13:26:00,54.6,34.9,29.98,SW,235,6.0,18.0,47,0.00,,OVC OVC///CB,0.00,WUHU216DAVISVP2,2013-11-09 18:26:00,
2013-11-09 13:31:00,54.4,34.7,29.98,WSW,256,8.0,20.0,47,0.00,,OVC OVC///CB,0.00,WUHU216DAVISVP2,2013-11-09 18:31:00,
2013-11-09 13:36:00,54.5,34.8,29.97,WSW,238,4.0,20.0,47,0.00,,OVC OVC///CB,0.00,WUHU216DAVISVP2,2013-11-09 18:36:00,
2013-11-09 13:41:00,54.9,35.2,29.97,West,266,9.0,19.0,47,0.00,,OVC OVC///CB,0.00,WUHU216DAVISVP2,2013-11-09 18:41:00,
2013-11-09 13:46:00,54.9,35.2,29.97,SW,236,14.0,19.0,47,0.00,,OVC OVC///CB,0.00,WUHU216DAVISVP2,2013-11-09 18:46:00,
2013-11-09 13:51:00,55.1,34.8,29.96,SSW,207,10.0,18.0,46,0.00,,OVC OVC///CB,0.00,WUHU216DAVISVP2,2013-11-09 18:51:00,
2013-11-09 13:56:00,55.4,35.1,29.96,SW,224,4.0,18.0,46,0.00,,OVC OVC///CB,0.00,WUHU216DAVISVP2,2013-11-09 18:56:00,
2013-11-09 14:01:00,55.7,34.8,29.96,South,170,7.0,26.0,45,0.00,,OVC OVC///CB,0.00,WUHU216DAVISVP2,2013-11-09 19:01:00,
2013-11-09 14:06:00,55.6,35.3,29.96,SSW,203,7.0,26.0,46,0.00,,OVC OVC///CB,0.00,WUHU216DAVISVP2,2013-11-09 19:06:00,
2013-11-09 14:11:00,55.7,35.9,29.96,SSW,204,3.0,26.0,47,0.00,,OVC OVC///CB,0.00,WUHU216DAVISVP2,2013-11-09 19:11:00,
2013-11-09 14:16:00,56.1,36.3,29.96,WSW,243,3.0,19.0,47,0.00,,OVC OVC///CB,0.00,WUHU216DAVISVP2,2013-11-09 19:16:00,
2013-11-09 14:21:00,56.3,35.9,29.96,SSW,204,4.0,18.0,46,0.00,,OVC OVC///CB,0.00,WUHU216DAVISVP2,2013-11-09 19:21:00,
2013-11-09 14:26:00,56.6,35.6,29.96,West,265,4.0,17.0,45,0.00,,OVC OVC///CB,0.00,WUHU216DAVISVP2,2013-11-09 19:26:00,
2013-11-09 14:31:00,56.7,35.2,29.96,SW,235,7.0,20.0,44,0.00,,OVC OVC///CB,0.00,WUHU216DAVISVP2,2013-11-09 19:31:00,
2013-11-09 14:36:00,57.1,36.1,29.96,WSW,244,11.0,20.0,45,0.00,,OVC OVC///CB,0.00,WUHU216DAVISVP2,2013-11-09 19:36:00,
2013-11-09 14:41:00,57.6,36.0,29.96,WSW,242,5.0,20.0,44,0.00,,OVC OVC///CB,0.00,WUHU216DAVISVP2,2013-11-09 19:41:00,
2013-11-09 14:46:00,57.5,35.9,29.96,SW,221,9.0,23.0,44,0.00,,OVC OVC///CB,0.00,WUHU216DAVISVP2,2013-11-09 19:46:00,
2013-11-09 14:51:00,57.5,36.5,29.97,NW,305,8.0,23.0,45,0.00,,OVC OVC///CB,0.00,WUHU216DAVISVP2,2013-11-09 19:51:00,
2013-11-09 14:56:00,57.4,35.8,29.96,WSW,255,14.0,23.0,44,0.00,,OVC OVC///CB,0.00,WUHU216DAVISVP2,2013-11-09 19:56:00,
2013-11-09 15:01:00,57.3,36.3,29.97,WSW,244,11.0,23.0,45,0.00,,OVC OVC///CB,0.00,WUHU216DAVISVP2,2013-11-09 20:01:00,
2013-11-09 15:06:00,57.2,36.2,29.96,SW,229,8.0,21.0,45,0.00,,OVC OVC///CB,0.00,WUHU216DAVISVP2,2013-11-09 20:06:00,
2013-11-09 15:11:00,57.1,36.1,29.96,SW,221,13.0,23.0,45,0.00,,OVC OVC///CB,0.00,WUHU216DAVISVP2,2013-11-09 20:11:00,
2013-11-09 15:16:00,57.2,36.8,29.96,SW,225,13.0,23.0,46,0.00,,OVC OVC///CB,0.00,WUHU216DAVISVP2,2013-11-09 20:16:00,
2013-11-09 15:21:00,57.2,36.8,29.96,SW,224,7.0,22.0,46,0.00,,OVC OVC///CB,0.00,WUHU216DAVISVP2,2013-11-09 20:21:00,
2013-11-09 15:26:00,57.1,37.2,29.96,SW,229,9.0,22.0,47,0.00,,OVC OVC///CB,0.00,WUHU216DAVISVP2,2013-11-09 20:26:00,
2013-11-09 15:31:00,57.0,37.1,29.96,SSW,212,9.0,23.0,47,0.00,,OVC OVC///CB,0.00,WUHU216DAVISVP2,2013-11-09 20:31:00,
2013-11-09 15:36:00,57.0,37.1,29.96,WSW,249,9.0,23.0,47,0.00,,OVC OVC///CB,0.00,WUHU216DAVISVP2,2013-11-09 20:36:00,
2013-11-09 15:41:00,57.0,37.7,29.96,SW,235,7.0,22.0,48,0.00,,OVC OVC///CB,0.00,WUHU216DAVISVP2,2013-11-09 20:41:00,
2013-11-09 15:46:00,57.1,37.8,29.96,WSW,255,12.0,22.0,48,0.00,,OVC OVC///CB,0.00,WUHU216DAVISVP2,2013-11-09 20:46:00,
2013-11-09 15:51:00,57.2,37.9,29.96,SW,215,10.0,19.0,48,0.00,,OVC OVC///CB,0.00,WUHU216DAVISVP2,2013-11-09 20:51:00,
2013-11-09 15:56:00,57.2,38.4,29.96,WSW,257,6.0,19.0,49,0.00,,OVC OVC///CB,0.00,WUHU216DAVISVP2,2013-11-09 20:56:00,
2013-11-09 16:01:00,57.1,37.8,29.96,WSW,252,6.0,19.0,48,0.00,,OVC OVC///CB,0.00,WUHU216DAVISVP2,2013-11-09 21:01:00,
2013-11-09 16:06:00,57.0,38.2,29.96,West,260,10.0,19.0,49,0.00,,OVC OVC///CB,0.00,WUHU216DAVISVP2,2013-11-09 21:06:00,
2013-11-09 16:11:00,56.9,38.1,29.96,SW,235,10.0,19.0,49,0.00,,OVC OVC///CB,0.00,WUHU216DAVISVP2,2013-11-09 21:11:00,
2013-11-09 16:16:00,56.8,38.0,29.96,SW,221,8.0,20.0,49,0.00,,OVC OVC///CB,0.00,WUHU216DAVISVP2,2013-11-09 21:16:00,
2013-11-09 16:21:00,56.6,37.8,29.96,West,270,7.0,20.0,49,0.00,,OVC OVC///CB,0.00,WUHU216DAVISVP2,2013-11-09 21:21:00,
2013-11-09 16:26:00,56.5,38.3,29.96,West,266,6.0,19.0,50,0.00,,OVC OVC///CB,0.00,WUHU216DAVISVP2,2013-11-09 21:26:00,
2013-11-09 16:31:00,56.3,38.1,29.96,SW,219,11.0,19.0,50,0.00,,OVC OVC///CB,0.00,WUHU216DAVISVP2,2013-11-09 21:31:00,
2013-11-09 16:36:00,56.1,38.4,29.96,WSW,246,8.0,17.0,51,0.00,,OVC OVC///CB,0.00,WUHU216DAVISVP2,2013-11-09 21:36:00,
2013-11-09 16:41:00,56.1,38.4,29.96,WSW,239,8.0,15.0,51,0.00,,OVC OVC///CB,0.00,WUHU216DAVISVP2,2013-11-09 21:41:00,
2013-11-09 16:46:00,56.0,38.3,29.96,WSW,238,10.0,15.0,51,0.00,,OVC OVC///CB,0.00,WUHU216DAVISVP2,2013-11-09 21:46:00,
2013-11-09 16:51:00,56.0,38.3,29.96,SSW,212,11.0,18.0,51,0.00,,OVC OVC///CB,0.00,WUHU216DAVISVP2,2013-11-09 21:51:00,
2013-11-09 16:56:00,55.8,38.2,29.97,West,264,4.0,18.0,51,0.00,,OVC OVC///CB,0.00,WUHU216DAVISVP2,2013-11-09 21:56:00,
2013-11-09 17:01:00,55.6,38.0,29.97,WSW,240,9.0,18.0,51,0.00,,OVC OVC///CB,0.00,WUHU216DAVISVP2,2013-11-09 22:01:00,
2013-11-09 17:06:00,55.4,38.3,29.96,SW,215,10.0,18.0,52,0.00,,OVC OVC///CB,0.00,WUHU216DAVISVP2,2013-11-09 22:06:00,
2013-11-09 17:11:00,55.1,38.0,29.97,SW,226,5.0,18.0,52,0.00,,OVC OVC///CB,0.00,WUHU216DAVISVP2,2013-11-09 22:11:00,
2013-11-09 17:16:00,54.9,38.3,29.97,WSW,243,12.0,20.0,53,0.00,,OVC OVC///CB,0.00,WUHU216DAVISVP2,2013-11-09 22:16:00,
2013-11-09 17:21:00,54.8,38.2,29.97,SW,225,6.0,20.0,53,0.00,,OVC OVC///CB,0.00,WUHU216DAVISVP2,2013-11-09 22:21:00,
2013-11-09 17:26:00,54.5,37.9,29.97,WSW,253,10.0,20.0,53,0.00,,OVC OVC///CB,0.00,WUHU216DAVISVP2,2013-11-09 22:26:00,
2013-11-09 17:31:00,54.4,37.9,29.97,SW,229,7.0,19.0,53,0.00,,OVC OVC///CB,0.00,WUHU216DAVISVP2,2013-11-09 22:31:00,
2013-11-09 17:36:00,54.3,37.8,29.97,SW,228,2.0,14.0,53,0.00,,OVC OVC///CB,0.00,WUHU216DAVISVP2,2013-11-09 22:36:00,
2013-11-09 17:41:00,54.2,37.7,29.97,WSW,242,3.0,14.0,53,0.00,,OVC OVC///CB,0.00,WUHU216DAVISVP2,2013-11-09 22:41:00,
2013-11-09 17:46:00,54.0,38.0,29.98,SSW,200,6.0,13.0,54,0.00,,OVC OVC///CB,0.00,WUHU216DAVISVP2,2013-11-09 22:46:00,
2013-11-09 17:51:00,53.9,37.9,29.98,SW,227,7.0,11.0,54,0.00,,OVC OVC///CB,0.00,WUHU216DAVISVP2,2013-11-09 22:51:00,
2013-11-09 17:56:00,53.8,37.8,29.98,SW,228,11.0,13.0,54,0.00,,OVC OVC///CB,0.00,WUHU216DAVISVP2,2013-11-09 22:56:00,
2013-11-09 18:01:00,53.7,38.2,29.98,West,259,5.0,13.0,55,0.00,,OVC OVC///CB,0.00,WUHU216DAVISVP2,2013-11-09 23:01:00,
2013-11-09 18:06:00,53.8,38.3,29.98,West,278,5.0,12.0,55,0.00,,OVC OVC///CB,0.00,WUHU216DAVISVP2,2013-11-09 23:06:00,
2013-11-09 18:11:00,53.8,38.3,29.98,SW,223,6.0,15.0,55,0.00,,OVC OVC///CB,0.00,WUHU216DAVISVP2,2013-11-09 23:11:00,
2013-11-09 18:16:00,53.7,38.2,29.98,WSW,244,6.0,15.0,55,0.00,,OVC OVC///CB,0.00,WUHU216DAVISVP2,2013-11-09 23:16:00,
2013-11-09 18:21:00,53.8,38.3,29.98,WSW,247,2.0,15.0,55,0.00,,OVC OVC///CB,0.00,WUHU216DAVISVP2,2013-11-09 23:21:00,
2013-11-09 18:26:00,53.6,38.5,29.99,WSW,238,2.0,15.0,56,0.00,,OVC OVC///CB,0.00,WUHU216DAVISVP2,2013-11-09 23:26:00,
2013-11-09 18:31:00,53.5,38.4,29.99,WSW,253,4.0,15.0,56,0.00,,OVC OVC///CB,0.00,WUHU216DAVISVP2,2013-11-09 23:31:00,
2013-11-09 18:36:00,53.4,38.8,29.99,SW,236,6.0,14.0,57,0.00,,OVC OVC///CB,0.00,WUHU216DAVISVP2,2013-11-09 23:36:00,
2013-11-09 18:41:00,53.4,38.3,29.99,SSW,207,3.0,14.0,56,0.00,,OVC OVC///CB,0.00,WUHU216DAVISVP2,2013-11-09 23:41:00,
2013-11-09 18:46:00,53.4,38.3,29.99,SW,215,2.0,11.0,56,0.00,,OVC OVC///CB,0.00,WUHU216DAVISVP2,2013-11-09 23:46:00,
2013-11-09 18:51:00,53.5,38.4,29.99,WSW,254,7.0,11.0,56,0.00,,OVC OVC///CB,0.00,WUHU216DAVISVP2,2013-11-09 23:51:00,
2013-11-09 18:56:00,53.7,38.2,29.99,WSW,244,6.0,11.0,55,0.00,,OVC OVC///CB,0.00,WUHU216DAVISVP2,2013-11-09 23:56:00,
2013-11-09 19:01:00,53.7,38.2,29.99,SSW,208,3.0,11.0,55,0.00,,OVC OVC///CB,0.00,WUHU216DAVISVP2,2013-11-10 00:01:00,
2013-11-09 19:06:00,53.7,38.6,29.99,SW,228,3.0,10.0,56,0.00,,OVC OVC///CB,0.00,WUHU216DAVISVP2,2013-11-10 00:06:00,
2013-11-09 19:11:00,53.6,38.1,29.99,SSW,207,5.0,10.0,55,0.00,,OVC OVC///CB,0.00,WUHU216DAVISVP2,2013-11-10 00:11:00,
2013-11-09 19:17:00,53.6,38.1,29.99,WSW,244,7.0,9.0,55,0.00,,OVC OVC///CB,0.00,WUHU216DAVISVP2,2013-11-10 00:17:00,
2013-11-09 19:22:00,53.6,38.1,30.00,SSW,205,4.0,11.0,55,0.00,,OVC OVC///CB,0.00,WUHU216DAVISVP2,2013-11-10 00:22:00,
2013-11-09 19:27:00,53.6,38.1,29.99,WSW,243,3.0,11.0,55,0.00,,OVC OVC///CB,0.00,WUHU216DAVISVP2,2013-11-10 00:27:00,
2013-11-09 19:32:00,53.5,38.0,29.99,SSW,205,4.0,10.0,55,0.00,,OVC OVC///CB,0.00,WUHU216DAVISVP2,2013-11-10 00:32:00,
2013-11-09 19:37:00,53.6,38.1,29.99,WNW,285,4.0,14.0,55,0.00,,OVC OVC///CB,0.00,WUHU216DAVISVP2,2013-11-10 00:37:00,
2013-11-09 19:42:00,53.6,37.6,29.99,WSW,250,4.0,14.0,54,0.00,,OVC OVC///CB,0.00,WUHU216DAVISVP2,2013-11-10 00:42:00,
2013-11-09 19:47:00,53.5,37.5,29.99,WSW,257,8.0,14.0,54,0.00,,OVC OVC///CB,0.00,WUHU216DAVISVP2,2013-11-10 00:47:00,
2013-11-09 19:52:00,53.5,37.5,29.99,WSW,242,3.0,14.0,54,0.00,,OVC OVC///CB,0.00,WUHU216DAVISVP2,2013-11-10 00:52:00,
2013-11-09 19:57:00,53.5,37.5,29.99,SW,224,6.0,13.0,54,0.00,,OVC OVC///CB,0.00,WUHU216DAVISVP2,2013-11-10 00:57:00,
2013-11-09 20:02:00,53.5,37.5,29.99,SW,228,5.0,14.0,54,0.00,,OVC OVC///CB,0.00,WUHU216DAVISVP2,2013-11-10 01:02:00,
2013-11-09 20:07:00,53.5,37.5,29.99,WSW,250,5.0,14.0,54,0.00,,OVC OVC///CB,0.00,WUHU216DAVISVP2,2013-11-10 01:07:00,
2013-11-09 20:12:00,53.4,37.4,29.99,West,267,3.0,14.0,54,0.00,,OVC OVC///CB,0.00,WUHU216DAVISVP2,2013-11-10 01:12:00,
2013-11-09 20:17:00,53.4,37.9,29.99,WSW,257,5.0,14.0,55,0.00,,OVC OVC///CB,0.00,WUHU216DAVISVP2,2013-11-10 01:17:00,
2013-11-09 20:22:00,53.4,37.4,29.99,SW,234,3.0,12.0,54,0.00,,OVC OVC///CB,0.00,WUHU216DAVISVP2,2013-11-10 01:22:00,
2013-11-09 20:27:00,53.3,37.8,29.99,SW,232,8.0,12.0,55,0.00,,OVC OVC///CB,0.00,WUHU216DAVISVP2,2013-11-10 01:27:00,
2013-11-09 20:32:00,53.3,37.3,29.99,WSW,242,3.0,12.0,54,0.00,,OVC OVC///CB,0.00,WUHU216DAVISVP2,2013-11-10 01:32:00,
2013-11-09 20:37:00,53.3,37.8,29.99,SSW,195,3.0,11.0,55,0.00,,OVC OVC///CB,0.00,WUHU216DAVISVP2,2013-11-10 01:37:00,
2013-11-09 20:42:00,53.3,37.8,29.99,WSW,255,6.0,11.0,55,0.00,,OVC OVC///CB,0.00,WUHU216DAVISVP2,2013-11-10 01:42:00,
2013-11-09 20:47:00,53.3,37.8,29.99,WSW,254,3.0,11.0,55,0.00,,OVC OVC///CB,0.00,WUHU216DAVISVP2,2013-11-10 01:47:00,
2013-11-09 20:52:00,53.3,37.8,29.98,SW,225,5.0,14.0,55,0.00,,OVC OVC///CB,0.00,WUHU216DAVISVP2,2013-11-10 01:52:00,
2013-11-09 20:57:00,53.4,37.9,29.99,WSW,244,11.0,26.0,55,0.00,,OVC OVC///CB,0.00,WUHU216DAVISVP2,2013-11-10 01:57:00,
2013-11-09 21:02:00,53.5,38.0,29.98,WSW,254,8.0,26.0,55,0.00,,OVC OVC///CB,0.00,WUHU216DAVISVP2,2013-11-10 02:02:00,
2013-11-09 21:07:00,53.5,38.4,29.98,WSW,256,4.0,25.0,56,0.00,,OVC OVC///CB,0.00,WUHU216DAVISVP2,2013-11-10 02:07:00,
2013-11-09 21:12:00,53.4,38.3,29.98,SW,221,5.0,25.0,56,0.00,,OVC OVC///CB,0.00,WUHU216DAVISVP2,2013-11-10 02:12:00,
2013-11-09 21:17:00,53.3,38.3,29.98,SW,235,7.0,13.0,56,0.00,,OVC OVC///CB,0.00,WUHU216DAVISVP2,2013-11-10 02:17:00,
2013-11-09 21:22:00,53.4,38.8,29.98,SW,233,8.0,13.0,57,0.00,,OVC OVC///CB,0.00,WUHU216DAVISVP2,2013-11-10 02:22:00,
2013-11-09 21:27:00,53.5,38.9,29.98,WSW,248,7.0,19.0,57,0.00,,OVC OVC///CB,0.00,WUHU216DAVISVP2,2013-11-10 02:27:00,
2013-11-09 21:32:00,53.5,39.4,29.98,WSW,253,7.0,19.0,58,0.00,,OVC OVC///CB,0.00,WUHU216DAVISVP2,2013-11-10 02:32:00,
2013-11-09 21:37:00,53.6,39.4,29.98,SSW,205,4.0,19.0,58,0.00,,OVC OVC///CB,0.00,WUHU216DAVISVP2,2013-11-10 02:37:00,
2013-11-09 21:42:00,53.6,39.4,29.98,WSW,250,3.0,16.0,58,0.00,,OVC OVC///CB,0.00,WUHU216DAVISVP2,2013-11-10 02:42:00,
2013-11-09 21:47:00,53.6,39.4,29.98,WSW,241,8.0,17.0,58,0.00,,OVC OVC///CB,0.00,WUHU216DAVISVP2,2013-11-10 02:47:00,
2013-11-09 21:52:00,53.7,39.5,29.98,SW,225,5.0,17.0,58,0.00,,OVC OVC///CB,0.00,WUHU216DAVISVP2,2013-11-10 02:52:00,
2013-11-09 21:57:00,53.8,39.6,29.97,SW,233,3.0,17.0,58,0.00,,OVC OVC///CB,0.00,WUHU216DAVISVP2,2013-11-10 02:57:00,
2013-11-09 22:02:00,53.7,40.0,29.97,WSW,253,6.0,17.0,59,0.00,,OVC OVC///CB,0.00,WUHU216DAVISVP2,2013-11-10 03:02:00,
2013-11-09 22:07:00,53.7,40.0,29.97,SW,228,9.0,16.0,59,0.00,,OVC OVC///CB,0.00,WUHU216DAVISVP2,2013-11-10 03:07:00,
2013-11-09 22:12:00,53.7,40.0,29.97,SW,221,10.0,16.0,59,0.00,,OVC OVC///CB,0.00,WUHU216DAVISVP2,2013-11-10 03:12:00,
2013-11-09 22:17:00,53.8,40.1,29.97,West,266,4.0,16.0,59,0.00,,OVC OVC///CB,0.00,WUHU216DAVISVP2,2013-11-10 03:17:00,
2013-11-09 22:22:00,53.7,40.0,29.98,WSW,257,6.0,17.0,59,0.00,,OVC OVC///CB,0.00,WUHU216DAVISVP2,2013-11-10 03:22:00,
2013-11-09 22:27:00,53.5,40.2,29.98,WSW,240,5.0,17.0,60,0.00,,OVC OVC///CB,0.00,WUHU216DAVISVP2,2013-11-10 03:27:00,
2013-11-09 22:32:00,53.3,40.5,29.98,SW,229,4.0,16.0,61,0.00,,OVC OVC///CB,0.00,WUHU216DAVISVP2,2013-11-10 03:32:00,
2013-11-09 22:37:00,53.3,40.5,29.97,WSW,250,6.0,23.0,61,0.00,,OVC OVC///CB,0.00,WUHU216DAVISVP2,2013-11-10 03:37:00,
2013-11-09 22:42:00,53.2,40.4,29.97,WSW,240,7.0,23.0,61,0.00,,OVC OVC///CB,0.00,WUHU216DAVISVP2,2013-11-10 03:42:00,
2013-11-09 22:47:00,53.2,40.8,29.98,SW,232,5.0,23.0,62,0.00,,OVC OVC///CB,0.00,WUHU216DAVISVP2,2013-11-10 03:47:00,
2013-11-09 22:52:00,53.2,40.8,29.98,SW,235,9.0,18.0,62,0.00,,OVC OVC///CB,0.00,WUHU216DAVISVP2,2013-11-10 03:52:00,
2013-11-09 22:57:00,53.1,40.7,29.97,SW,215,11.0,15.0,62,0.00,,OVC OVC///CB,0.00,WUHU216DAVISVP2,2013-11-10 03:57:00,
2013-11-09 23:02:00,52.9,40.9,29.98,WSW,245,4.0,15.0,63,0.00,,OVC OVC///CB,0.00,WUHU216DAVISVP2,2013-11-10 04:02:00,
2013-11-09 23:07:00,52.8,40.8,29.98,WNW,285,5.0,14.0,63,0.00,,OVC OVC///CB,0.00,WUHU216DAVISVP2,2013-11-10 04:07:00,
2013-11-09 23:12:00,52.8,41.2,29.98,WSW,257,5.0,14.0,64,0.00,,OVC OVC///CB,0.00,WUHU216DAVISVP2,2013-11-10 04:12:00,
2013-11-09 23:17:00,52.8,41.2,29.98,West,280,6.0,13.0,64,0.00,,OVC OVC///CB,0.00,WUHU216DAVISVP2,2013-11-10 04:17:00,
2013-11-09 23:22:00,52.6,41.0,29.98,WSW,252,5.0,13.0,64,0.00,,OVC OVC///CB,0.00,WUHU216DAVISVP2,2013-11-10 04:22:00,
2013-11-09 23:27:00,52.4,41.3,29.98,WSW,246,7.0,12.0,65,0.00,,OVC OVC///CB,0.00,WUHU216DAVISVP2,2013-11-10 04:27:00,
2013-11-09 23:32:00,52.3,41.6,29.98,West,280,5.0,12.0,66,0.00,,OVC OVC///CB,0.00,WUHU216DAVISVP2,2013-11-10 04:32:00,
2013-11-09 23:37:00,52.2,41.8,29.98,West,267,3.0,12.0,67,0.00,,OVC OVC///CB,0.00,WUHU216DAVISVP2,2013-11-10 04:37:00,
2013-11-09 23:42:00,52.0,41.7,29.98,WNW,292,4.0,12.0,67,0.00,,OVC OVC///CB,0.00,WUHU216DAVISVP2,2013-11-10 04:42:00,
2013-11-09 23:47:00,51.8,41.8,29.98,West,265,4.0,12.0,68,0.00,,OVC OVC///CB,0.00,WUHU216DAVISVP2,2013-11-10 04:47:00,
2013-11-09 23:52:00,51.6,41.6,29.98,WSW,244,4.0,12.0,68,0.00,,OVC OVC///CB,0.00,WUHU216DAVISVP2,2013-11-10 04:52:00,
2013-11-09 23:57:00,51.5,41.9,29.98,West,277,5.0,12.0,69,0.00,,OVC OVC///CB,0.00,WUHU216DAVISVP2,2013-11-10 04:57:00,